Regional Weather Roundup
Issued by NWS Sioux Falls, SD

Home | Current Version | Previous Version | Graphics & Text | Print | Product List | Glossary Off
Versions: 1 2 3 4 5 6 7 8 9 10 11 12 13 14 15 16 17 18 19 20 21 22 23 24 25 26 27 28 29 30 31 32 33 34 35 36 37 38 39 40 41 42 43 44 45 46 47 48 49 50

316
ASUS43 KFSD 250302
RWRFSD

WEATHER ROUNDUP FOR SE SOUTH DAKOTA/SW MINNESOTA/NW IOWA
NATIONAL WEATHER SERVICE SIOUX FALLS SD
1000 PM CDT TUE MAY 24 2016

NOTE: "FAIR" INDICATES FEW OR NO CLOUDS BELOW 12,000 FEET WITH NO
SIGNIFICANT WEATHER AND OR OBSTRUCTIONS TO VISIBILITY.


SDZ038>040-050-052>070-250400-
SOUTHEAST SOUTH DAKOTA

CITY           SKY/WX    TMP DP  RH WIND       PRES   REMARKS
BROOKINGS      CLOUDY    74  46  36 E5        29.85R
CHAMBERLAIN    NOT AVBL
HURON          CLOUDY    69  53  56 E7        29.80S
MADISON        FAIR      70  50  49 SE8       29.85S
MITCHELL       CLOUDY    70  58  65 E8        29.80R
SIOUX FALLS    PTCLDY    74  59  59 SE12      29.84S
WINNER         MOCLDY    68  55  63 SE9       29.77R
YANKTON        PTCLDY    73  59  60 SE13      29.82R
$$

MNZ071-072-080-081-089-090-097-098-250400-
SOUTHWEST MINNESOTA

CITY           SKY/WX    TMP DP  RH WIND       PRES   REMARKS
FAIRMONT       CLEAR     73  52  46 SE12      29.89S
JACKSON        CLEAR     73  55  53 SE9       29.90R
LUVERNE        CLEAR     70  55  60 SE3       29.87R
MARSHALL       NOT AVBL
MONTEVIDEO     CLEAR     70  55  60 S10       29.87R
PIPESTONE      CLEAR     73  54  49 S6        29.87S
REDWOOD FALLS  CLEAR     72  50  45 E9        29.86R
WINDOM         CLEAR     72  54  53 CALM      29.88R
WORTHINGTON    CLEAR     71  59  65 SE9       29.89R
$$

IAZ001>003-012>014-020>022-031-032-NEZ013-014-SDZ071-250400-
NORTHWEST IOWA

CITY           SKY/WX    TMP DP  RH WIND       PRES   REMARKS
DENISON        CLEAR     70  63  78 SE5       29.86S
ESTHERVILLE    CLEAR     70  59  68 SE10      29.90R
SIOUX CITY     CLEAR     70  64  81 SE8       29.85R
SPENCER        CLEAR     71  61  70 SE9       29.89R
STORM LAKE     CLEAR     70  63  78 SE8       29.90S
$$

ABBREVIATIONS USED IN REMARKS
   TC - TEMPERATURE IN CELSIUS
  WCI - WIND CHILL INDEX
   HX - HEAT INDEX
  VSB - VISIBILITY





USA.gov is the U.S. government's official web portal to all federal, state and local government web resources and services.